PAL454P RPMR-RPLL

Flight info

Callsign PAL454P
Flight time N/A
Altitude 40000
Route LATIA4R LATIA W6 LUMVI B473 LAIYA LAIYA5P
Aircraft A343/H-SDE2E3FGHIJ4J5M1RWXY/LB1D1

Departure

Time 2026-04-17 05:57
Airport General Santos International Airport (RPMR)

Arrival

Time N/A
Airport Ninoy Aquino International Airport (RPLL)
Time Latitude Longitude Altitude Speed Heading
2026-04-17 05:38 6.05713 125.09945 518 ft 0 kts 83°
2026-04-17 05:44 6.05713 125.09940 518 ft 2 kts 83°
2026-04-17 05:44 6.05710 125.09921 518 ft 3 kts 83°
2026-04-17 05:44 6.05708 125.09906 518 ft 3 kts 77°
2026-04-17 05:45 6.05702 125.09891 518 ft 3 kts 28°
2026-04-17 05:45 6.05684 125.09885 518 ft 3 kts
2026-04-17 05:45 6.05670 125.09886 518 ft 1 kts 353°
2026-04-17 05:50 6.05674 125.09885 518 ft 1 kts 353°
2026-04-17 05:50 6.05693 125.09883 518 ft 5 kts 353°
2026-04-17 05:51 6.05747 125.09876 518 ft 9 kts 353°
2026-04-17 05:51 6.05815 125.09865 518 ft 8 kts 335°
2026-04-17 05:51 6.05837 125.09823 518 ft 6 kts 275°
2026-04-17 05:51 6.05831 125.09774 518 ft 8 kts 263°
2026-04-17 05:52 6.05823 125.09706 518 ft 12 kts 263°
2026-04-17 05:52 6.05830 125.09625 518 ft 10 kts 311°
2026-04-17 05:52 6.05898 125.09607 518 ft 11 kts 353°
2026-04-17 05:52 6.05994 125.09595 519 ft 18 kts 353°
2026-04-17 05:53 6.06140 125.09578 520 ft 22 kts 353°
2026-04-17 05:53 6.06294 125.09559 520 ft 24 kts 353°
2026-04-17 05:53 6.06468 125.09538 519 ft 25 kts 353°
2026-04-17 05:53 6.06643 125.09522 520 ft 25 kts 355°
2026-04-17 05:54 6.06821 125.09503 518 ft 27 kts 352°
2026-04-17 05:54 6.07006 125.09478 516 ft 25 kts 350°
2026-04-17 05:54 6.07094 125.09463 517 ft 10 kts 351°
2026-04-17 05:54 6.07135 125.09495 517 ft 8 kts 70°
2026-04-17 05:55 6.07140 125.09558 517 ft 11 kts 85°
2026-04-17 05:55 6.07161 125.09614 517 ft 7 kts 34°
2026-04-17 05:55 6.07215 125.09613 517 ft 11 kts 352°
2026-04-17 05:55 6.07260 125.09582 517 ft 8 kts 291°
2026-04-17 05:56 6.07255 125.09517 516 ft 12 kts 263°
2026-04-17 05:56 6.07234 125.09444 516 ft 1 kts 215°
2026-04-17 05:56 6.07225 125.09444 516 ft 5 kts 187°
2026-04-17 05:56 6.07176 125.09450 516 ft 15 kts 173°
2026-04-17 05:57 6.06868 125.09490 517 ft 76 kts 173°
2026-04-17 05:57 6.06159 125.09575 520 ft 127 kts 173°
2026-04-17 05:57 6.05139 125.09696 663 ft 156 kts 171°
2026-04-17 05:57 6.04093 125.09818 1371 ft 151 kts 171°
2026-04-17 05:58 6.03033 125.09956 1849 ft 164 kts 175°
2026-04-17 05:58 6.01801 125.10107 2180 ft 192 kts 173°
2026-04-17 05:58 6.00377 125.10281 2493 ft 221 kts 174°
2026-04-17 05:59 5.97175 125.10763 3831 ft 239 kts 162°
2026-04-17 05:59 5.95751 125.11643 4420 ft 246 kts 132°
2026-04-17 05:59 5.94982 125.13173 5047 ft 250 kts 99°
2026-04-17 05:59 5.95127 125.14931 5482 ft 263 kts 68°
2026-04-17 06:00 5.96259 125.16363 5928 ft 273 kts 33°
2026-04-17 06:00 5.98052 125.16980 6531 ft 276 kts
2026-04-17 06:00 5.99979 125.17120 7154 ft 279 kts
2026-04-17 06:00 6.01927 125.17215 7804 ft 282 kts
2026-04-17 06:01 6.03898 125.17320 8465 ft 284 kts
2026-04-17 06:01 6.05888 125.17437 9133 ft 286 kts
2026-04-17 06:01 6.07888 125.17560 9814 ft 289 kts
2026-04-17 06:01 6.09915 125.17690 10296 ft 297 kts
2026-04-17 06:02 6.12036 125.17826 10543 ft 313 kts
2026-04-17 06:02 6.14234 125.17772 10758 ft 327 kts 350°
2026-04-17 06:02 6.16480 125.17238 11084 ft 337 kts 342°
2026-04-17 06:02 6.18749 125.16525 11526 ft 342 kts 341°
2026-04-17 06:03 6.21009 125.15701 11966 ft 348 kts 333°
2026-04-17 06:03 6.22945 125.14263 12503 ft 348 kts 313°
2026-04-17 06:03 6.24568 125.12441 12964 ft 352 kts 309°
2026-04-17 06:03 6.26153 125.10555 13495 ft 355 kts 309°
2026-04-17 06:04 6.27749 125.08643 13952 ft 358 kts 309°
2026-04-17 06:04 6.29355 125.06706 14391 ft 361 kts 309°
2026-04-17 06:04 6.31056 125.04875 14856 ft 364 kts 317°
2026-04-17 06:04 6.33137 125.03420 15274 ft 369 kts 332°
2026-04-17 06:05 6.35580 125.02582 15767 ft 372 kts 345°
2026-04-17 06:05 6.38126 125.02036 16224 ft 375 kts 347°
2026-04-17 06:05 6.40698 125.01538 16679 ft 378 kts 348°
2026-04-17 06:05 6.43300 125.01044 17143 ft 381 kts 348°
2026-04-17 06:06 6.45916 125.00549 17615 ft 383 kts 348°
2026-04-17 06:06 6.48554 125.00050 18064 ft 386 kts 348°
2026-04-17 06:06 6.51168 124.99556 18466 ft 388 kts 348°
2026-04-17 06:06 6.53833 124.99051 18773 ft 391 kts 348°
2026-04-17 06:07 6.56520 124.98529 18868 ft 392 kts 348°
2026-04-17 06:07 6.59199 124.98007 18882 ft 393 kts 348°
2026-04-17 06:07 6.61882 124.97483 18875 ft 393 kts 348°
2026-04-17 06:07 6.64568 124.96959 18876 ft 393 kts 348°
2026-04-17 06:08 6.67252 124.96434 18871 ft 393 kts 348°
2026-04-17 06:08 6.69874 124.95712 18693 ft 388 kts 338°
2026-04-17 06:08 6.72248 124.94459 18225 ft 385 kts 323°
2026-04-17 06:08 6.74162 124.92585 17679 ft 383 kts 306°
2026-04-17 06:09 6.75375 124.90267 17199 ft 379 kts 288°
2026-04-17 06:09 6.75807 124.87669 16720 ft 376 kts 269°
2026-04-17 06:09 6.75426 124.85083 16262 ft 374 kts 253°
2026-04-17 06:09 6.74593 124.82618 15812 ft 371 kts 250°
2026-04-17 06:10 6.73700 124.80187 15389 ft 369 kts 250°
2026-04-17 06:10 6.72815 124.77775 14957 ft 366 kts 250°
2026-04-17 06:10 6.71941 124.75372 14526 ft 364 kts 250°
2026-04-17 06:10 6.71087 124.73011 14132 ft 362 kts 250°
2026-04-17 06:11 6.70232 124.70640 13757 ft 359 kts 250°
2026-04-17 06:11 6.69386 124.68286 13279 ft 357 kts 250°
2026-04-17 06:11 6.68465 124.65981 12891 ft 353 kts 240°
2026-04-17 06:11 6.66848 124.64153 12469 ft 352 kts 217°
2026-04-17 06:12 6.64629 124.63142 11958 ft 354 kts 193°
2026-04-17 06:12 6.62194 124.63154 11648 ft 351 kts 167°
2026-04-17 06:12 6.60051 124.64170 11473 ft 343 kts 142°
2026-04-17 06:12 6.58566 124.65983 11303 ft 335 kts 116°
2026-04-17 06:13 6.58043 124.68216 11160 ft 326 kts 90°
2026-04-17 06:13 6.58073 124.70466 11039 ft 317 kts 91°
2026-04-17 06:13 6.57787 124.72642 10842 ft 310 kts 106°
2026-04-17 06:13 6.56882 124.74581 10566 ft 306 kts 127°
2026-04-17 06:14 6.55313 124.75984 10293 ft 302 kts 152°
2026-04-17 06:14 6.53416 124.76867 10004 ft 300 kts 159°
2026-04-17 06:14 6.51490 124.77632 9833 ft 294 kts 160°
2026-04-17 06:14 6.49638 124.78358 9755 ft 285 kts 159°
2026-04-17 06:15 6.47813 124.79076 9603 ft 279 kts 159°
2026-04-17 06:15 6.46016 124.79784 9377 ft 276 kts 159°
2026-04-17 06:15 6.44236 124.80486 9135 ft 274 kts 159°
2026-04-17 06:15 6.42465 124.81187 8888 ft 272 kts 159°
2026-04-17 06:16 6.40690 124.81893 8455 ft 278 kts 158°
2026-04-17 06:16 6.39028 124.82839 8111 ft 270 kts 141°
2026-04-17 06:16 6.37821 124.84218 7872 ft 256 kts 123°
2026-04-17 06:16 6.36932 124.85725 7647 ft 244 kts 120°
2026-04-17 06:17 6.36123 124.87189 7403 ft 234 kts 119°
2026-04-17 06:17 6.35337 124.88615 6997 ft 233 kts 119°
2026-04-17 06:17 6.34552 124.90031 6473 ft 238 kts 119°
2026-04-17 06:17 6.33738 124.91494 6065 ft 234 kts 119°
2026-04-17 06:18 6.32964 124.92883 5709 ft 229 kts 119°
2026-04-17 06:18 6.32186 124.94276 5335 ft 228 kts 119°
2026-04-17 06:18 6.31414 124.95658 4980 ft 226 kts 119°
2026-04-17 06:18 6.30647 124.97030 4623 ft 224 kts 119°
2026-04-17 06:19 6.29886 124.98391 4237 ft 222 kts 119°
2026-04-17 06:19 6.29147 124.99712 3874 ft 212 kts 118°
2026-04-17 06:19 6.28443 125.00970 3532 ft 201 kts 118°
2026-04-17 06:19 6.27773 125.02169 3181 ft 193 kts 118°
2026-04-17 06:20 6.27127 125.03324 2824 ft 186 kts 118°
2026-04-17 06:20 6.26517 125.04414 2641 ft 170 kts 118°
2026-04-17 06:20 6.25924 125.05408 2556 ft 167 kts 123°
2026-04-17 06:20 6.25168 125.06309 2486 ft 169 kts 135°
2026-04-17 06:21 6.24229 125.07000 2424 ft 165 kts 149°
2026-04-17 06:21 6.23243 125.07409 2399 ft 144 kts 163°
2026-04-17 06:21 6.22610 125.07554 2408 ft 138 kts 171°
2026-04-17 06:21 6.21689 125.07682 2406 ft 136 kts 174°
2026-04-17 06:22 6.20753 125.07795 2403 ft 134 kts 173°
2026-04-17 06:22 6.19507 125.07948 2399 ft 135 kts 173°
2026-04-17 06:22 6.18889 125.08024 2403 ft 135 kts 173°
2026-04-17 06:22 6.17955 125.08138 2378 ft 135 kts 174°
2026-04-17 06:23 6.17019 125.08257 2407 ft 135 kts 173°
2026-04-17 06:23 6.16079 125.08372 2316 ft 136 kts 175°
2026-04-17 06:23 6.15140 125.08484 2094 ft 135 kts 173°
2026-04-17 06:23 6.14208 125.08596 1941 ft 135 kts 174°
2026-04-17 06:24 6.13276 125.08709 1751 ft 135 kts 173°
2026-04-17 06:24 6.12344 125.08824 1587 ft 135 kts 172°
2026-04-17 06:24 6.11412 125.08939 1390 ft 135 kts 173°
2026-04-17 06:24 6.10490 125.09039 1128 ft 134 kts 172°
2026-04-17 06:25 6.09553 125.09163 939 ft 136 kts 168°
2026-04-17 06:25 6.08624 125.09260 783 ft 131 kts 168°
2026-04-17 06:25 6.07724 125.09386 658 ft 132 kts 171°
2026-04-17 06:25 6.06801 125.09494 522 ft 132 kts 171°
2026-04-17 06:26 6.06050 125.09590 519 ft 83 kts 173°
2026-04-17 06:26 6.05662 125.09637 517 ft 21 kts 173°
2026-04-17 06:26 6.05571 125.09647 517 ft 15 kts 173°
2026-04-17 06:26 6.05459 125.09661 518 ft 16 kts 173°
2026-04-17 06:27 6.05398 125.09697 518 ft 6 kts 108°